GW0007 Weather Reports


Display with metric or nautical units.
time (UTC)temp
F
wind
direction
speed
MPH
gust
MPH
rain 1hr
in
rain 24hr
in
rain mn
in
humidity
%
barometer
mb
20260504034538 59 125 2.0 5.0 0.00 0.00 0.00 34 1008.7
20260504033041 58 68 1.0 5.0 0.00 0.00 0.00 37 1008.4
20260504031541 59 0 1.0 7.0 0.00 0.00 0.00 38 1008.2
20260504030042 62 0 0.0 5.0 0.00 0.00 0.00 34 1008.0
20260504024537 64 339 2.0 5.0 0.00 0.00 0.00 33 1007.9
20260504023043 66 304 0.0 4.0 0.00 0.00 0.00 31 1007.8
20260504021539 68 293 4.0 8.0 0.00 0.00 0.00 28 1007.8
20260504020037 71 309 3.0 6.0 0.00 0.00 0.00 25 1007.9
20260504014552 71 319 4.0 8.0 0.00 0.00 0.00 24 1008.0
20260504013047 72 259 5.0 11.0 0.00 0.00 0.00 25 1007.9
20260504011545 72 143 7.0 16.0 0.00 0.00 0.00 23 1008.0
20260504010046 73 316 7.0 14.0 0.00 0.00 0.00 23 1008.0
20260504004538 73 282 6.0 14.0 0.00 0.00 0.00 24 1008.1
20260504003040 73 298 13.0 20.0 0.00 0.00 0.00 22 1008.2
20260504001551 73 269 10.0 22.0 0.00 0.00 0.00 22 1008.3
20260504000045 74 290 8.0 20.0 0.00 0.00 0.00 23 1008.4
20260503234539 73 302 19.0 27.0 0.00 0.00 0.00 21 1008.5
20260503233035 74 343 10.0 18.0 0.00 0.00 0.00 22 1008.5
20260503231541 73 289 12.0 20.0 0.00 0.00 0.00 23 1008.8
20260503230045 73 280 12.0 23.0 0.00 0.00 0.00 22 1009.0
20260503224543 73 310 9.0 19.0 0.00 0.00 0.00 21 1009.1
20260503223039 73 309 12.0 20.0 0.00 0.00 0.00 21 1009.1
20260503221546 73 334 8.0 25.0 0.00 0.00 0.00 22 1009.4
20260503220056 72 311 15.0 24.0 0.00 0.00 0.00 20 1009.6
20260503214542 73 266 8.0 19.0 0.00 0.00 0.00 21 1009.7
20260503213038 72 316 11.0 23.0 0.00 0.00 0.00 21 1009.9
20260503211537 72 285 9.0 26.0 0.00 0.00 0.00 21 1010.4
20260503210053 72 306 7.0 21.0 0.00 0.00 0.00 24 1010.5
20260503204557 71 305 10.0 27.0 0.00 0.00 0.00 24 1010.7
20260503203053 70 323 16.0 26.0 0.00 0.00 0.00 22 1010.7
20260503201546 70 305 16.0 29.0 0.00 0.00 0.00 24 1011.0
20260503200047 70 279 15.0 29.0 0.00 0.00 0.00 24 1011.1
20260503194550 70 285 12.0 26.0 0.00 0.00 0.00 23 1011.3
20260503193043 70 335 12.0 26.0 0.00 0.00 0.00 25 1011.6
20260503191548 70 337 18.0 28.0 0.00 0.00 0.00 26 1011.8
20260503190045 69 307 10.0 17.0 0.00 0.00 0.00 26 1012.2
20260503184537 68 70 1.0 13.0 0.00 0.00 0.00 30 1012.4
20260503183043 67 349 14.0 27.0 0.00 0.00 0.00 27 1012.6
20260503181538 68 295 13.0 24.0 0.00 0.00 0.00 29 1012.8
20260503180056 67 293 13.0 20.0 0.00 0.00 0.00 29 1012.8
20260503174543 67 257 9.0 23.0 0.00 0.00 0.00 32 1013.4
20260503173115 66 285 9.0 15.0 0.00 0.00 0.00 34 1013.4
20260503171545 67 260 7.0 20.0 0.00 0.00 0.00 36 1013.6
20260503081552 45 137 1.0 3.0 0.00 0.00 0.00 70 1016.0
20260503071539 46 25 2.0 3.0 0.00 0.00 0.00 70 1016.4
20260503054539 49 150 2.0 3.0 0.00 0.00 0.00 62 1016.7
20260503053037 49 134 3.0 5.0 0.00 0.00 0.00 63 1016.7
20260503051537 50 119 2.0 3.0 0.00 0.00 0.00 62 1017.0
20260503050036 50 115 2.0 4.0 0.00 0.00 0.00 61 1017.0
20260503044543 52 121 2.0 2.0 0.00 0.00 0.00 57 1017.0
20260503043039 53 0 0.0 1.0 0.00 0.00 0.00 55 1017.0
20260503041542 54 41 0.0 2.0 0.00 0.00 0.00 52 1016.9
20260503040038 55 0 0.0 3.0 0.00 0.00 0.00 52 1017.0